Lexington, NE

5:04 AM CST on February 21, 2017 (GMT -0600)
Kelly

Weather History for KLXN - June, 2013

Change the Weather History Date:

Tuesday, June 25, 2013

  Actual Average Record
Temperature  
Mean Temperature 80 °F -  
Max Temperature 91 °F 81 °F 96 °F (2001)
Min Temperature 67 °F 57 °F 42 °F (2004)
Cooling Degree Days 14    
Growing Degree Days 30 (Base 50)    
Moisture  
Dew Point 65 °F    
Average Humidity 65    
Maximum Humidity 88    
Minimum Humidity 28    
Precipitation  
Precipitation 0.00 in - - ()
Sea Level Pressure  
Sea Level Pressure 29.74 in    
Wind  
Wind Speed 10 mph (SSW)    
Max Wind Speed 18 mph    
Max Gust Speed 22 mph    
Visibility 10 miles    
Events      
Averages and records for this station are not official NWS values.
T = Trace of Precipitation, MM = Missing Value Source: NWS Daily Summary

Daily Weather History Graph

Daily Weather History Graph

Search for Another Location

Airport or City:

Trip Planner

Search our weather history database for the weather conditions in past years. The results will help you decide how hot, cold, wet, or windy it might be!

Date:

Astronomy

Jun. 25, 2013 Rise Set
Actual Time 6:09 AM CDT 9:14 PM CDT
Civil Twilight 5:35 AM CDT 9:48 PM CDT
Nautical Twilight 4:52 AM CDT 10:30 PM CDT
Astronomical Twilight 4:02 AM CDT 11:21 PM CDT
Moon 10:59 PM CDT (6/25) 8:52 AM CDT (6/25)
Length of Visible Light 16h 12m
Length of Day
15h 05m
Waning Gibbous, 92% of the Moon is Illuminated
Jun 25
Waning Gibbous
Jun 29
Last Quarter
Jul 8
New
Jul 15
First Quarter
Jul 22
Full

Hourly Weather History & Observations

Time (CDT) Temp. Heat Index Dew Point Humidity Pressure Visibility Wind Dir Wind Speed Gust Speed Precip Events Conditions
12:15 AM 78.3 °F - 59.4 °F 52% 29.71 in 10.0 mi SSW 18.4 mph 21.9 mph N/A   Clear
12:35 AM 77.9 °F - 60.1 °F 54% 29.71 in 10.0 mi SSW 15.0 mph 20.7 mph N/A   Clear
12:55 AM 77.0 °F - 60.8 °F 57% 29.71 in 10.0 mi SSW 11.5 mph 20.7 mph N/A   Clear
1:15 AM 76.3 °F - 60.8 °F 59% 29.71 in 10.0 mi South 10.4 mph - N/A   Clear
1:35 AM 76.1 °F - 61.0 °F 59% 29.71 in 10.0 mi South 9.2 mph - N/A   Clear
1:55 AM 75.4 °F - 61.0 °F 61% 29.71 in 10.0 mi South 10.4 mph - N/A   Clear
2:15 AM 77.2 °F - 60.8 °F 57% 29.71 in 10.0 mi South 15.0 mph 19.6 mph N/A   Clear
2:35 AM 77.0 °F - 61.5 °F 59% 29.70 in 10.0 mi South 10.4 mph - N/A   Clear
2:55 AM 77.2 °F - 62.2 °F 60% 29.70 in 10.0 mi South 15.0 mph 21.9 mph N/A   Clear
3:15 AM 77.0 °F - 63.5 °F 63% 29.71 in 10.0 mi South 11.5 mph 20.7 mph N/A   Clear
3:35 AM 76.1 °F - 64.0 °F 66% 29.71 in 10.0 mi South 8.1 mph 16.1 mph N/A   Clear
3:55 AM 75.7 °F - 64.4 °F 68% 29.73 in 10.0 mi SSE 4.6 mph - N/A   Clear
4:15 AM 75.0 °F - 64.6 °F 70% 29.72 in 10.0 mi SSE 13.8 mph 21.9 mph N/A   Clear
4:35 AM 73.9 °F - 64.9 °F 73% 29.74 in 10.0 mi East 9.2 mph 17.3 mph N/A   Scattered Clouds
4:55 AM 73.9 °F - 65.3 °F 74% 29.71 in 10.0 mi SSE 16.1 mph - N/A   Scattered Clouds
5:15 AM 73.6 °F - 65.5 °F 76% 29.72 in 10.0 mi ESE 9.2 mph - N/A   Clear
5:35 AM 72.7 °F - 65.7 °F 79% 29.71 in 10.0 mi SSE 10.4 mph - N/A   Clear
5:55 AM 72.0 °F - 65.8 °F 81% 29.71 in 10.0 mi SSE 10.4 mph - N/A   Clear
6:15 AM 71.8 °F - 66.2 °F 83% 29.71 in 10.0 mi SE 9.2 mph - N/A   Clear
6:35 AM 71.6 °F - 66.2 °F 83% 29.70 in 10.0 mi SE 11.5 mph - N/A   Clear
6:55 AM 71.8 °F - 66.2 °F 83% 29.70 in 10.0 mi SE 9.2 mph - N/A   Clear
7:15 AM 71.6 °F - 66.4 °F 84% 29.70 in 10.0 mi SE 11.5 mph - N/A   Clear
7:35 AM 71.1 °F - 66.2 °F 85% 29.70 in 10.0 mi SE 15.0 mph - N/A   Clear
7:55 AM 70.9 °F - 66.2 °F 85% 29.70 in 10.0 mi SSE 13.8 mph - N/A   Clear
8:15 AM 71.6 °F - 66.6 °F 84% 29.70 in 10.0 mi SE 15.0 mph 18.4 mph N/A   Clear
8:35 AM 72.1 °F - 66.6 °F 83% 29.69 in 10.0 mi SE 13.8 mph 20.7 mph N/A   Clear
8:55 AM 72.5 °F - 66.6 °F 82% 29.70 in 10.0 mi SE 12.7 mph 18.4 mph N/A   Clear
9:15 AM 72.7 °F - 66.4 °F 81% 29.71 in 10.0 mi SE 12.7 mph 17.3 mph N/A   Clear
9:35 AM 73.2 °F - 66.7 °F 80% 29.73 in 10.0 mi SSE 10.4 mph - N/A   Clear
9:55 AM 73.9 °F - 66.9 °F 79% 29.73 in 10.0 mi South 8.1 mph - N/A   Clear
10:15 AM 74.3 °F - 67.1 °F 78% 29.73 in 10.0 mi South 9.2 mph - N/A   Clear
10:35 AM 76.1 °F - 68.2 °F 76% 29.73 in 10.0 mi SSE 8.1 mph - N/A   Clear
10:55 AM 77.0 °F - 68.2 °F 74% 29.73 in 10.0 mi South 5.8 mph - N/A   Scattered Clouds
11:15 AM 77.7 °F - 67.5 °F 71% 29.73 in 10.0 mi Calm Calm - N/A   Scattered Clouds
11:35 AM 78.6 °F - 68.4 °F 71% 29.73 in 10.0 mi Calm Calm - N/A   Scattered Clouds
11:55 AM 78.4 °F - 68.4 °F 71% 29.73 in 10.0 mi Calm Calm - N/A   Scattered Clouds
12:15 PM 79.9 °F - 68.5 °F 68% 29.73 in 10.0 mi Calm Calm - N/A   Clear
12:35 PM 79.7 °F - 68.9 °F 69% 29.73 in 10.0 mi North 3.5 mph - N/A   Clear
12:55 PM 81.7 °F 85.4 °F 70.0 °F 68% 29.73 in 10.0 mi NW 4.6 mph - N/A   Clear
1:15 PM 81.7 °F 85.1 °F 69.4 °F 66% 29.74 in 10.0 mi North 5.8 mph - N/A   Clear
1:35 PM 83.1 °F 87.6 °F 70.7 °F 66% 29.74 in 10.0 mi NW 10.4 mph - N/A   Clear
1:55 PM 84.2 °F 88.7 °F 70.3 °F 63% 29.74 in 10.0 mi North 3.5 mph - N/A   Clear
2:15 PM 85.5 °F 90.1 °F 70.0 °F 60% 29.74 in 10.0 mi North 6.9 mph - N/A   Clear
2:35 PM 86.0 °F 91.5 °F 71.1 °F 61% 29.74 in 10.0 mi NNE 4.6 mph - N/A   Clear
2:55 PM 86.5 °F 91.4 °F 70.0 °F 58% 29.74 in 10.0 mi NNW 3.5 mph - N/A   Clear
3:15 PM 87.1 °F 92.4 °F 70.7 °F 58% 29.74 in 10.0 mi ENE 3.5 mph - N/A   Clear
3:35 PM 88.0 °F 92.5 °F 69.3 °F 54% 29.74 in 10.0 mi North 6.9 mph - N/A   Clear
3:55 PM 88.7 °F 91.9 °F 67.3 °F 49% 29.74 in 10.0 mi NNW 6.9 mph - N/A   Clear
4:15 PM 89.2 °F 92.0 °F 66.7 °F 47% 29.74 in 10.0 mi North 4.6 mph - N/A   Clear
4:35 PM 90.5 °F 93.3 °F 66.2 °F 45% 29.74 in 10.0 mi NNW 9.2 mph 16.1 mph N/A   Scattered Clouds
4:55 PM 90.9 °F 90.0 °F 59.2 °F 34% 29.74 in 10.0 mi NNW 10.4 mph - N/A   Scattered Clouds
5:15 PM 91.0 °F 90.9 °F 60.6 °F 36% 29.74 in 10.0 mi NNW 11.5 mph - N/A   Clear
5:35 PM 90.7 °F 90.4 °F 60.1 °F 36% 29.74 in 10.0 mi WNW 12.7 mph - N/A   Clear
5:55 PM 91.0 °F 88.7 °F 54.1 °F 28% 29.74 in 10.0 mi WNW 13.8 mph - N/A   Clear
6:15 PM 90.7 °F 89.0 °F 55.9 °F 31% 29.74 in 10.0 mi NW 9.2 mph - N/A   Clear
6:35 PM 90.0 °F 88.3 °F 56.3 °F 32% 29.74 in 10.0 mi NW 6.9 mph - N/A   Clear
6:55 PM 89.6 °F 88.6 °F 58.5 °F 35% 29.75 in 10.0 mi WNW 6.9 mph - N/A   Clear
7:15 PM 88.9 °F 88.0 °F 58.5 °F 36% 29.75 in 10.0 mi WNW 8.1 mph - N/A   Clear
7:35 PM 87.6 °F 87.7 °F 61.0 °F 41% 29.76 in 10.0 mi WNW 6.9 mph - N/A   Clear
7:55 PM 85.5 °F 87.1 °F 65.1 °F 50% 29.76 in 10.0 mi NW 4.6 mph - N/A   Clear
8:15 PM 83.7 °F 86.0 °F 66.6 °F 56% 29.77 in 10.0 mi NW 5.8 mph - N/A   Clear
8:35 PM 82.4 °F 85.8 °F 68.9 °F 64% 29.77 in 10.0 mi NW 3.5 mph - N/A   Clear
8:55 PM 81.7 °F 84.9 °F 68.7 °F 65% 29.78 in 10.0 mi Calm Calm - N/A   Clear
9:15 PM 79.5 °F - 67.3 °F 66% 29.78 in 10.0 mi WNW 3.5 mph - N/A   Clear
9:35 PM 76.6 °F - 66.7 °F 71% 29.78 in 10.0 mi West 3.5 mph - N/A   Clear
9:55 PM 74.5 °F - 67.1 °F 78% 29.78 in 10.0 mi Calm Calm - N/A   Clear
10:15 PM 75.0 °F - 66.0 °F 73% 29.79 in 10.0 mi West 4.6 mph - N/A   Clear
10:35 PM 71.2 °F - 65.5 °F 82% 29.80 in 10.0 mi WSW 3.5 mph - N/A   Clear
10:55 PM 69.3 °F - 65.1 °F 87% 29.81 in 10.0 mi Calm Calm - N/A   Clear
11:15 PM 70.2 °F - 64.4 °F 82% 29.82 in 10.0 mi WSW 3.5 mph - N/A   Clear
11:35 PM 68.2 °F - 63.9 °F 86% 29.81 in 10.0 mi WNW 4.6 mph - N/A   Clear
11:55 PM 67.6 °F - 64.0 °F 88% 29.82 in 10.0 mi West 5.8 mph - N/A   Clear